SCP
0 0 0 0 1 1 1 0 0 0 0 0 0 0 0 0 0 0 1 1 1 1 1 1 1 1 0 0 0 0 0 0 0 0 0 0 0 0 0 0 0 0 0
0 0 0 0 0 0 0 0 0 0 0 0 0 0 0 0 1 1 1 1 1 1 1 1 1 1 1 1 0 0 0 0 0 0 0 0 0 0 0 0 0 0 0
0 0 0 0 0 0 0 0 0 0 0 0 0 0 0 1 1 1 1 1 1 1 1 1 1 1 1 1 1 1 1 1 1 0 0 0 0 0 0 0 0 0 0
0 0 0 0 0 0 0 0 0 0 0 0 0 0 0 0 0 0 0 0 1 1 1 1 1 1 1 1 1 1 1 1 1 1 1 0 0 0 0 0 0 0 0
0 0 0 0 0 0 0 0 0 0 0 0 0 0 0 0 0 0 0 0 1 1 1 1 1 1 1 1 1 1 1 1 1 1 1 1 1 1 0 0 0 0 0
0 0 0 0 0 0 0 0 0 0 0 0 0 0 0 0 0 0 0 0 0 0 0 1 1 1 1 1 1 1 1 1 2 2 1 1 1 1 1 1 0 0 0
0 0 0 0 0 0 0 0 0 0 0 0 0 0 0 0 0 0 0 0 0 0 0 0 0 0 1 1 1 1 1 1 2 2 2 2 2 1 1 1 1 1 1
0 0 0 0 0 0 0 0 0 0 0 0 0 0 0 0 0 0 0 0 0 0 0 0 0 0 0 1 1 1 1 1 1 2 2 2 2 2 1 1 1 1 1
1 0 0 0 1 1 1 1 1 1 1 1 1 1 1 0 0 0 0 0 0 0 0 0 0 0 0 0 0 1 1 1 1 1 1 2 2 2 2 1 1 1 1
1 1 1 1 1 1 1 1 1 1 1 1 1 1 1 1 1 0 0 0 0 0 0 0 0 0 0 0 1 1 1 1 1 1 1 1 2 2 2 2 1 1 1
1 1 1 1 1 1 1 1 1 1 1 1 1 1 1 1 1 1 1 1 0 0 0 0 0 0 0 1 1 1 0 0 1 1 1 1 2 2 2 2 2 2 2
1 1 1 1 1 1 1 1 1 1 1 2 2 1 1 1 1 1 1 1 1 1 0 0 0 0 0 1 0 0 0 0 0 0 1 1 1 1 2 2 2 2 2
2 2 2 2 1 1 1 1 1 2 2 2 1 1 1 1 1 1 1 1 1 1 1 0 0 0 0 0 0 0 0 0 0 0 0 1 1 1 1 1 1 1 2
3 3 2 2 2 2 2 2 2 2 2 1 1 1 1 1 1 1 1 1 1 1 1 0 0 0 1 1 0 0 0 0 0 0 0 0 1 1 1 1 1 1 1
3 3 3 3 2 2 2 2 2 2 1 1 1 1 1 1 1 1 1 1 1 1 0 0 0 0 1 1 1 1 1 1 0 0 0 0 0 0 1 0 0 0 0
3 3 3 3 2 2 2 2 2 1 1 1 1 1 1 1 1 1 1 1 1 1 1 1 0 0 0 0 1 1 1 1 0 0 0 0 0 0 0 0 0 0 0
3 3 3 3 2 2 2 2 2 2 1 1 1 1 1 1 1 1 1 1 1 1 1 1 1 1 0 1 1 1 1 1 1 1 0 0 0 0 0 0 0 0 0
3 3 3 3 3 3 3 3 3 2 2 1 1 1 1 1 1 1 1 1 1 1 1 1 1 1 1 1 1 1 1 1 1 1 1 0 0 0 0 0 0 0 0
3 3 2 2 3 3 3 3 3 2 2 1 1 1 1 1 1 1 1 1 2 2 1 1 1 1 1 1 1 1 1 1 1 1 1 1 0 0 0 0 0 0 0
3 2 2 2 2 3 3 3 3 3 2 1 1 1 1 1 1 1 2 2 2 2 2 1 1 1 1 1 1 1 1 1 1 1 1 1 1 0 0 0 0 0 0
2 2 2 2 2 2 3 3 3 3 2 1 1 1 1 1 1 1 2 2 2 2 2 2 2 2 2 1 1 1 1 1 1 1 1 1 1 1 0 0 0 0 0
2 2 2 2 2 2 2 2 2 2 2 1 1 1 1 1 1 1 1 1 1 2 2 2 2 2 2 2 2 2 2 1 1 1 1 1 1 1 1 0 0 0 0
3 3 3 2 2 2 2 2 2 2 2 1 2 2 2 1 1 2 1 1 1 1 1 2 3 3 3 3 2 2 2 2 1 1 1 1 1 1 1 0 0 0 0
3 3 3 2 2 2 2 1 1 1 2 2 2 2 2 2 2 2 2 2 2 2 1 1 2 3 3 2 2 2 2 1 1 1 1 1 1 1 1 0 0 0 0
4 4 3 3 3 3 2 1 1 2 2 2 2 2 2 1 1 2 2 3 3 2 1 1 1 1 1 1 1 2 2 1 1 1 1 1 1 1 1 1 0 0 0
4 4 3 3 3 3 2 1 1 2 2 2 2 2 2 1 1 2 2 3 3 3 1 1 1 1 1 1 1 1 2 2 2 1 1 1 1 1 1 1 1 0 0
Wind_Speed
2 1 1 1 1 1 1 1 1 1 1 1 1 2 2 3 3 2 2 7 9 9 9 9 9 9 9 9 9 9 8 9 8 8 8 8 8 8 8 7 7 6 6
2 2 2 1 1 1 2 1 1 1 1 1 1 1 2 2 2 2 2 4 6 7 8 9 9 9 9 9 9 8 8 8 8 8 8 8 8 8 8 8 8 7 6
2 2 2 1 1 2 2 2 1 1 1 1 1 1 1 2 2 2 2 2 2 5 7 8 8 9 9 9 8 8 8 8 7 7 7 8 8 8 8 8 7 7 7
3 3 2 2 1 2 2 2 2 2 1 1 1 0 1 1 1 2 2 2 2 2 4 6 7 8 8 9 9 9 8 8 7 7 7 7 7 7 7 6 7 7 6
3 3 2 2 2 2 2 2 2 2 2 1 1 0 0 0 1 1 2 2 2 2 2 3 6 6 8 9 8 9 9 8 8 7 7 7 7 7 7 6 6 6 7
3 3 2 2 3 2 2 2 2 2 2 1 1 1 1 0 0 1 2 2 2 3 3 3 3 4 6 7 7 7 8 8 8 8 7 7 7 6 6 6 7 7 7
3 3 2 3 3 3 3 3 3 3 2 2 2 1 1 1 1 1 1 2 3 3 3 3 3 3 3 5 6 7 8 8 8 8 8 8 8 7 6 6 6 6 6
3 3 3 3 3 3 3 3 3 2 2 2 2 1 1 2 1 1 1 2 3 2 3 4 4 4 3 3 3 6 8 8 9 8 8 8 8 7 7 7 7 6 6
3 3 3 3 3 3 3 3 4 4 3 2 2 3 2 2 1 1 1 2 2 2 3 3 4 4 4 3 4 5 7 8 9 9 8 8 7 7 7 8 8 7 7
3 3 3 3 3 3 3 3 3 3 4 3 2 2 2 3 2 1 1 1 2 3 4 3 4 4 5 4 5 6 8 8 9 9 9 8 8 7 8 8 8 8 8
2 3 3 3 3 3 3 3 3 3 3 3 3 2 2 1 2 2 2 1 1 2 3 4 4 4 5 5 4 6 8 8 8 8 8 8 8 8 8 8 8 8 8
2 2 3 3 3 3 3 3 4 4 3 3 3 3 3 3 3 3 3 3 3 2 3 3 4 4 4 5 6 8 9 9 8 8 8 8 8 8 8 8 8 8 8
2 3 3 3 3 3 3 3 4 4 4 4 4 3 3 3 2 3 3 2 2 2 2 2 4 4 4 4 5 8 8 8 8 8 8 8 7 7 7 7 8 8 7
3 3 3 3 3 3 3 3 3 3 3 4 5 4 3 3 3 3 3 3 2 2 2 4 2 4 4 4 5 7 5 7 7 7 7 8 8 7 7 7 7 6 5
3 3 3 3 3 3 3 3 2 3 3 4 4 4 4 3 3 3 3 4 3 3 3 3 3 2 3 3 4 4 5 6 7 7 7 8 7 6 6 6 6 5 4
3 3 3 3 3 3 3 3 3 3 3 3 3 4 4 3 3 3 4 3 3 3 3 2 3 2 2 3 4 4 5 6 7 7 7 7 7 6 5 5 4 4 4
4 4 4 3 3 3 3 3 3 3 3 3 3 3 4 3 3 3 3 3 4 4 4 3 2 2 3 3 2 3 3 4 3 6 7 7 6 6 6 5 5 5 5
4 4 4 4 3 3 3 3 3 3 4 4 4 4 4 3 4 3 3 4 4 4 4 5 3 2 3 3 3 3 2 2 3 4 6 6 6 6 6 5 5 5 5
4 3 4 4 4 3 3 3 3 3 4 4 4 4 4 4 4 4 4 4 4 4 4 4 3 2 2 2 2 1 1 1 2 2 4 5 5 6 5 5 4 4 4
4 4 4 4 4 4 4 4 4 3 3 4 4 4 4 5 5 5 4 5 4 4 4 4 3 2 2 2 2 2 1 1 2 1 2 3 4 5 5 5 5 5 5
4 4 4 4 3 4 4 4 4 4 4 4 4 4 5 5 5 5 4 5 5 4 4 4 3 2 3 2 3 2 3 2 2 2 2 2 2 2 3 5 6 6 6
3 4 4 4 4 4 4 5 4 4 4 5 5 4 4 5 5 6 7 7 7 6 6 5 4 5 5 4 3 3 3 2 2 2 2 2 2 3 3 3 5 6 7
3 4 4 4 4 5 5 5 6 4 4 4 5 4 4 4 4 4 4 5 7 8 8 6 6 6 5 5 5 4 4 4 4 2 2 2 2 3 3 3 6 7 7
4 4 4 5 5 5 5 6 6 4 4 4 4 5 4 4 4 3 3 3 4 4 6 6 6 6 5 4 5 5 5 3 2 2 3 3 3 3 3 3 6 8 8
4 4 4 5 5 5 5 5 5 3 3 4 4 4 5 5 5 4 4 4 4 3 3 4 5 5 5 5 5 3 4 4 3 3 3 3 2 2 2 3 4 7 8
3 3 3 3 5 5 5 5 5 3 4 4 3 4 6 6 5 4 4 5 5 4 3 2 2 3 3 4 6 5 5 5 3 3 4 4 3 2 2 2 3 3 5
Wind_Direction
144 142 135 126 128 126 132 126 120 118 116 121 141 152 164 171 178 186 201 204 195 196 198 198 197 195 197 199 200 204 207 207 207 206 206 208 210 210 208 208 209 207 208
150 154 160 156 162 159 155 151 146 122 101 95 103 141 164 170 176 179 196 206 200 198 202 203 200 201 205 205 204 205 208 210 211 211 212 212 215 217 218 216 214 212 213
151 153 160 172 185 164 154 140 130 109 110 109 94 110 141 161 167 179 192 204 208 208 204 204 204 207 209 209 210 211 209 211 211 212 213 216 215 216 219 220 220 219 218
161 156 168 194 184 152 148 148 138 115 101 104 93 69 103 134 169 178 185 197 204 213 218 212 211 213 215 217 218 216 212 210 210 210 209 210 209 211 213 216 222 219 217
170 166 181 186 168 156 161 167 138 133 134 127 110 56 71 144 187 185 193 201 202 208 218 228 228 221 222 223 220 215 209 209 209 210 213 212 212 214 212 214 217 218 221
172 166 176 178 163 153 158 153 138 129 140 137 100 49 29 294 210 214 219 215 219 221 219 225 234 231 224 223 224 220 212 208 207 209 213 214 217 218 215 215 219 220 221
176 174 182 172 165 169 174 159 142 131 139 130 110 52 15 9 264 239 222 217 228 225 218 219 221 223 227 227 225 222 219 215 212 213 215 216 217 214 211 214 216 216 220
183 185 185 184 175 166 164 162 152 144 164 160 144 122 349 344 335 252 228 223 230 221 220 221 219 219 222 229 226 225 223 221 220 221 218 217 216 214 213 215 215 215 218
186 189 189 185 179 174 181 183 169 166 180 188 170 159 171 222 289 313 254 233 225 219 227 229 228 229 226 226 232 233 228 227 227 228 226 223 219 214 214 217 219 219 219
188 187 185 183 182 181 186 191 176 175 170 190 191 199 200 176 177 275 308 262 233 231 233 232 231 230 228 227 227 227 229 229 230 232 231 232 224 219 220 222 224 223 219
192 185 182 181 184 187 189 184 172 180 184 191 190 184 191 197 192 196 255 275 270 243 234 233 232 230 226 222 225 228 226 227 229 232 230 230 230 229 227 226 229 230 228
195 191 183 186 192 194 193 194 190 192 198 199 201 194 187 188 194 195 224 246 260 263 242 234 232 231 228 224 226 226 224 222 222 224 223 224 229 232 233 232 234 235 233
206 208 192 188 196 200 196 188 189 200 201 202 210 215 215 219 194 185 200 233 254 271 262 244 232 228 228 225 229 226 225 218 217 218 219 221 225 226 227 229 234 235 235
205 192 182 190 195 193 195 186 191 203 201 211 218 217 218 226 209 199 193 194 240 262 251 253 244 227 229 226 230 225 229 219 217 215 216 217 219 220 225 229 232 233 230
193 184 182 193 202 200 197 186 197 209 206 218 223 221 222 226 217 217 205 196 202 240 257 241 235 231 225 227 228 223 226 220 213 211 213 215 215 215 220 222 224 224 222
193 183 188 199 207 206 199 194 204 213 208 224 223 220 227 227 219 214 210 211 211 217 245 241 231 238 233 236 222 223 224 220 217 213 211 211 212 212 213 211 210 207 205
197 196 190 197 204 205 198 193 206 208 214 228 230 224 235 229 223 216 210 208 212 210 236 255 236 230 222 235 238 227 226 222 221 216 212 206 203 202 203 200 202 203 205
200 200 189 194 201 201 196 197 209 212 212 221 231 228 240 236 229 224 217 220 219 214 219 242 240 219 225 230 231 226 223 216 215 208 205 200 197 194 194 195 198 202 205
196 197 190 200 208 207 204 209 213 216 216 221 224 227 235 227 235 231 226 227 225 220 216 224 238 223 223 217 217 221 208 221 215 203 201 195 187 184 184 187 190 198 203
193 202 205 210 211 209 207 209 211 218 227 233 232 232 231 225 232 233 230 228 222 219 215 219 232 230 219 200 189 204 227 225 232 225 198 181 178 186 191 192 190 193 198
203 206 209 217 218 214 216 210 210 220 228 240 247 246 242 237 234 231 231 225 217 217 214 216 225 223 215 196 206 199 218 227 243 208 198 200 197 207 209 207 203 201 203
202 199 207 212 218 229 229 211 208 220 227 235 244 252 253 246 245 240 238 229 216 214 215 214 219 223 224 215 207 202 199 204 237 195 197 232 210 221 218 215 209 202 203
205 211 217 216 227 238 231 221 216 214 225 233 238 243 250 254 249 255 251 243 233 228 216 210 219 225 221 210 197 205 210 216 228 191 183 229 213 231 225 215 205 206 209
210 219 224 226 232 242 231 222 216 216 226 234 236 236 239 252 252 247 244 248 249 246 232 223 226 231 223 208 202 206 209 216 229 205 191 220 214 226 232 222 210 207 209
223 226 226 229 235 247 236 227 214 225 237 245 242 237 234 242 247 232 223 231 242 251 246 228 231 235 229 219 197 185 188 197 227 223 195 208 216 224 231 234 220 207 207
231 240 242 240 236 242 239 227 210 219 238 248 250 246 241 244 248 227 217 223 236 244 236 238 246 251 241 226 200 200 202 207 220 227 191 191 204 196 233 229 223 212 207